Weather History for Phoenix, AZ

Change the Weather History Date:

Wednesday, June 26, 2013

  Actual Average Record
Temperature  
Mean Temperature 93 °F 93 °F  
Max Temperature 107 °F 106 °F 122 °F (1990)
Min Temperature 79 °F 81 °F 62 °F (1963)
Degree Days  
Heating Degree Days 0 0  
Month to date heating degree days 0 0  
Since 1 June heating degree days 0 0  
Since 1 July heating degree days 881 935  
Cooling Degree Days 28 28  
Month to date cooling degree days 758 658  
Year to date cooling degree days 1856 1544  
Since 1 June cooling degree days 758 658  
Growing Degree Days 43 (Base 50)    
Moisture  
Dew Point 32 °F    
Average Humidity 13    
Maximum Humidity 19    
Minimum Humidity 7    
Precipitation  
Precipitation 0.00 in 0.00 in 0.07 in (1927)
Month to date precipitation 0.00 0.01  
Year to date precipitation 2.61 3.22  
Snow  
Snow 0.00 in - - ()
Month to date snowfall 0.0  
Year to date snowfall 0.0  
Since 1 July snowfall 0.0  
Snow Depth 0.00 in    
Sea Level Pressure  
Sea Level Pressure 29.85 in    
Wind  
Wind Speed 7 mph (SSE)    
Max Wind Speed 14 mph    
Max Gust Speed 18 mph    
Visibility 10 miles    
Events      
T = Trace of Precipitation, MM = Missing Value Source: NWS Daily Summary

Daily Weather History Graph

Daily Weather History Graph

Search for Another Location

Airport:

Trip Planner

Search our weather history database for the weather conditions in past years. The results will help you decide how hot, cold, wet, or windy it might be!

Date:

Astronomy

Jun. 26, 2013 Rise Set
Actual Time 5:20 AM MST 7:41 PM MST
Civil Twilight 4:51 AM MST 8:10 PM MST
Nautical Twilight 4:15 AM MST 8:46 PM MST
Astronomical Twilight 3:36 AM MST 9:24 PM MST
Moon 10:20 PM MST (6/26) 9:04 AM MST (6/26)
Length of Visible Light 15h 19m
Length of Day
14h 21m
Waning Gibbous, 84% of the Moon is Illuminated
Jun 26
Waning Gibbous
Jun 29
Last Quarter
Jul 8
New
Jul 15
First Quarter
Jul 22
Full

Hourly Weather History & Observations

Time (MST) Temp. Dew Point Humidity Pressure Visibility Wind Dir Wind Speed Gust Speed Precip Events Conditions
12:51 AM 91.0 °F 26.1 °F 10% 29.80 in 10.0 mi NNW 5.8 mph - N/A   Clear
1:51 AM 87.1 °F 28.9 °F 12% 29.81 in 10.0 mi East 3.5 mph - N/A   Clear
2:51 AM 84.0 °F 33.1 °F 16% 29.83 in 10.0 mi SE 5.8 mph - N/A   Clear
3:51 AM 82.9 °F 36.0 °F 19% 29.84 in 10.0 mi East 5.8 mph - N/A   Clear
4:51 AM 81.0 °F 34.0 °F 18% 29.86 in 10.0 mi East 6.9 mph - N/A   Clear
5:51 AM 79.0 °F 33.1 °F 19% 29.88 in 10.0 mi East 8.1 mph - N/A   Clear
6:51 AM 81.0 °F 34.0 °F 18% 29.90 in 10.0 mi East 8.1 mph - N/A   Clear
7:51 AM 84.0 °F 27.0 °F 13% 29.91 in 10.0 mi SE 9.2 mph - N/A   Clear
8:51 AM 89.1 °F 30.0 °F 12% 29.92 in 10.0 mi SE 9.2 mph - N/A   Clear
9:51 AM 93.9 °F 27.0 °F 9% 29.92 in 10.0 mi SSE 8.1 mph - N/A   Clear
10:51 AM 96.1 °F 28.0 °F 9% 29.92 in 10.0 mi SW 5.8 mph - N/A   Clear
11:51 AM 99.0 °F 33.1 °F 10% 29.91 in 10.0 mi SE 3.5 mph - N/A   Clear
12:51 PM 100.9 °F 33.1 °F 9% 29.88 in 10.0 mi ESE 6.9 mph - N/A   Clear
1:51 PM 102.9 °F 32.0 °F 8% 29.86 in 10.0 mi Variable 3.5 mph - N/A   Clear
2:51 PM 104.0 °F 33.1 °F 9% 29.84 in 10.0 mi WSW 8.1 mph - N/A   Clear
3:51 PM 104.0 °F 32.0 °F 8% 29.82 in 10.0 mi SSW 9.2 mph - N/A   Clear
4:51 PM 104.0 °F 28.9 °F 7% 29.80 in 10.0 mi Variable 3.5 mph - N/A   Clear
5:51 PM 104.0 °F 32.0 °F 8% 29.79 in 10.0 mi West 6.9 mph - N/A   Clear
6:51 PM 104.0 °F 34.0 °F 9% 29.79 in 10.0 mi NW 9.2 mph - N/A   Clear
7:51 PM 102.9 °F 30.0 °F 8% 29.79 in 10.0 mi WNW 8.1 mph - N/A   Clear
8:51 PM 102.0 °F 27.0 °F 7% 29.80 in 10.0 mi WNW 8.1 mph - N/A   Clear
9:51 PM 96.1 °F 33.1 °F 11% 29.82 in 10.0 mi Calm Calm - N/A   Clear
10:51 PM 95.0 °F 33.1 °F 11% 29.83 in 10.0 mi West 3.5 mph - N/A   Clear
11:51 PM 93.0 °F 41.0 °F 16% 29.85 in 10.0 mi WSW 9.2 mph - N/A   Clear